Date String (YYYY-MM-DD hh:mm:ss) UTC,Instrument flags,Ambient pressure (hPa),Sample flow (lpm),Bypass flow (lpm),Sample temperature (°C),Ambient temperature (°C),ASC tube jacket temperature (°C),LED temperature (°C),Box temperature (°C),Sample RH (%),Span deviation,Mass concentration (μg/m³),Mass concentration (μg/m³),Mass concentration (μg/m³)
DateTimeUTC,F1_M11,P_M11,Q1_M11,Q2_M11,T1_M11,T2_M11,T3_M11,T4_M11,T5_M11,U1_M11,ZSPAN_M11,X0_M11,X2_M11,X1_M11
2022-12-04 20:00:00,,0822.3,5.00,0.00,26.3,25.2,00.0,35.0,28.2,12.7,0000.0,0013.56,0007.35,0006.38
2022-12-04 20:01:00,,0822.4,5.00,0.00,26.3,25.2,00.0,35.0,28.2,12.7,0000.0,0013.51,0007.39,0006.43
2022-12-04 20:02:00,,0822.4,5.00,0.00,26.3,25.3,00.0,35.1,28.2,13.0,0000.0,0013.60,0007.48,0006.49
2022-12-04 20:03:00,,0822.3,5.01,0.00,26.3,25.3,00.0,35.1,28.2,12.9,0000.0,0013.94,0007.62,0006.58
2022-12-04 20:04:00,,0822.4,5.00,0.00,26.3,25.3,00.0,35.1,28.2,13.0,0000.0,0014.60,0007.70,0006.67
2022-12-04 20:05:00,,0822.3,5.00,0.00,26.3,25.3,00.0,35.1,28.2,13.0,0000.0,0014.81,0007.78,0006.77
2022-12-04 20:06:00,,0822.2,5.00,0.00,26.3,25.3,00.0,35.1,28.2,12.9,0000.0,0015.29,0007.88,0006.84
2022-12-04 20:07:00,,0822.2,5.00,0.00,26.3,25.3,00.0,35.1,28.2,13.0,0000.0,0015.35,0007.90,0006.91
2022-12-04 20:08:00,,0822.2,5.00,0.00,26.4,25.3,00.0,35.1,28.2,13.1,0000.0,0015.75,0007.97,0006.97
2022-12-04 20:09:00,,0822.2,5.00,0.00,26.4,25.3,00.0,35.1,28.3,13.1,0000.0,0015.91,0008.06,0007.03
2022-12-04 20:10:00,,0822.3,5.00,0.00,26.4,25.3,00.0,35.2,28.2,13.1,0000.0,0015.38,0008.10,0007.10
2022-12-04 20:11:00,,0822.4,5.00,0.00,26.4,25.4,00.0,35.2,28.3,13.0,0000.6,0015.35,0008.12,0007.16
2022-12-04 20:12:00,,0822.4,5.00,0.00,26.4,25.4,00.0,35.2,28.3,12.9,0000.4,0016.20,0008.23,0007.23
2022-12-04 20:13:00,,0822.4,5.00,0.00,26.4,25.4,00.0,35.2,28.3,12.7,0000.2,0016.64,0008.24,0007.26
2022-12-04 20:14:00,,0822.4,5.00,0.00,26.4,25.4,00.0,35.2,28.3,12.8,0000.1,0016.38,0008.22,0007.27
2022-12-04 20:15:00,,0822.4,5.00,0.00,26.5,25.4,00.0,35.2,28.4,13.0,0000.1,0015.51,0008.28,0007.28
2022-12-04 20:16:00,,0822.3,5.00,0.00,26.5,25.4,00.0,35.2,28.3,12.8,-000.6,0015.35,0008.29,0007.30
2022-12-04 20:17:00,,0822.2,5.01,0.00,26.5,25.4,00.0,35.3,28.3,12.9,-001.1,0015.10,0008.28,0007.32
2022-12-04 20:18:00,,0822.1,5.00,0.00,26.5,25.5,00.0,35.3,28.4,12.9,-000.9,0015.07,0008.33,0007.37
2022-12-04 20:19:00,,0822.0,4.99,0.00,26.5,25.5,00.0,35.3,28.4,13.1,-000.6,0014.57,0008.35,0007.42
2022-12-04 20:20:00,,0822.0,4.99,0.00,26.5,25.5,00.0,35.3,28.4,13.0,-000.5,0014.91,0008.40,0007.46
2022-12-04 20:21:00,,0822.0,5.01,0.00,26.5,25.5,00.0,35.3,28.4,12.9,0000.0,0015.43,0008.41,0007.48
2022-12-04 20:22:00,,0822.1,5.01,0.00,26.6,25.5,00.0,35.3,28.5,12.7,0000.0,0015.47,0008.40,0007.49
2022-12-04 20:23:00,,0822.0,4.99,0.00,26.6,25.5,00.0,35.4,28.5,12.9,-000.1,0014.98,0008.42,0007.50
2022-12-04 20:24:00,,0822.0,4.99,0.00,26.6,25.5,00.0,35.4,28.5,12.7,-000.5,0015.37,0008.46,0007.52
2022-12-04 20:25:00,,0822.1,5.00,0.00,26.6,25.5,00.0,35.4,28.5,12.6,-000.6,0015.27,0008.48,0007.54
2022-12-04 20:26:00,,0822.0,5.00,0.00,26.6,25.6,00.0,35.4,28.5,12.6,-000.4,0016.02,0008.45,0007.56
2022-12-04 20:27:00,,0821.9,5.00,0.00,26.6,25.6,00.0,35.4,28.5,12.7,-000.1,0016.62,0008.45,0007.58
2022-12-04 20:28:00,,0821.8,5.01,0.00,26.6,25.6,00.0,35.4,28.5,12.7,-000.5,0017.15,0008.51,0007.64
2022-12-04 20:29:00,,0821.8,4.99,0.00,26.7,25.6,00.0,35.4,28.5,12.7,-000.1,0017.35,0008.55,0007.69
2022-12-04 20:30:00,,0821.8,4.99,0.00,26.7,25.6,00.0,35.4,28.5,12.8,0000.2,0017.89,0008.59,0007.73
2022-12-04 20:31:00,,0821.8,5.01,0.00,26.7,25.6,00.0,35.4,28.5,12.7,-000.0,0017.20,0008.57,0007.77
2022-12-04 20:32:00,,0821.8,5.01,0.00,26.7,25.6,00.0,35.5,28.5,12.8,0000.4,0016.63,0008.62,0007.83
2022-12-04 20:33:00,,0821.9,5.00,0.00,26.7,25.6,00.0,35.5,28.6,12.7,0000.2,0016.62,0008.68,0007.87
2022-12-04 20:34:00,,0822.0,5.01,0.00,26.7,25.7,00.0,35.5,28.6,12.9,0000.3,0016.42,0008.70,0007.90
2022-12-04 20:35:00,,0822.1,5.00,0.00,26.7,25.7,00.0,35.5,28.6,12.9,0001.4,0015.86,0008.71,0007.95
2022-12-04 20:36:00,,0821.8,5.00,0.00,26.7,25.7,00.0,35.5,28.6,13.0,0002.0,0015.78,0008.77,0008.02
2022-12-04 20:37:00,,0821.8,5.00,0.00,26.8,25.7,00.0,35.5,28.7,12.7,0001.9,0015.69,0008.88,0008.10
2022-12-04 20:38:00,,0821.8,5.00,0.00,26.8,25.7,00.0,35.5,28.7,12.7,0002.4,0015.09,0008.97,0008.16
2022-12-04 20:39:00,,0821.7,5.00,0.00,26.8,25.7,00.0,35.6,28.7,12.6,0003.4,0014.50,0008.99,0008.17
2022-12-04 20:40:00,,0821.7,5.00,0.00,26.8,25.7,00.0,35.6,28.7,12.7,0003.9,0013.96,0009.00,0008.19
2022-12-04 20:41:00,,0821.7,5.00,0.00,26.8,25.8,00.0,35.6,28.7,12.6,0004.1,0013.29,0009.02,0008.19
2022-12-04 20:42:00,,0821.6,4.99,0.00,26.8,25.8,00.0,35.6,28.7,12.6,0004.0,0013.52,0009.06,0008.20
2022-12-04 20:43:00,,0821.6,5.00,0.00,26.9,25.8,00.0,35.6,28.7,12.6,0004.4,0013.68,0009.07,0008.19
2022-12-04 20:44:00,,0821.6,5.01,0.00,26.9,25.8,00.0,35.6,28.8,12.5,0004.3,0013.91,0009.14,0008.20
2022-12-04 20:45:00,,0821.5,5.01,0.00,26.9,25.8,00.0,35.7,28.8,12.7,0005.0,0014.28,0009.21,0008.21
2022-12-04 20:46:00,,0821.5,4.99,0.00,26.9,25.8,00.0,35.7,28.8,12.6,0004.4,0014.42,0009.28,0008.21
2022-12-04 20:47:00,,0821.5,5.00,0.00,26.9,25.8,00.0,35.7,28.8,12.6,0004.3,0014.69,0009.30,0008.23
2022-12-04 20:48:00,,0821.5,5.01,0.00,26.9,25.9,00.0,35.7,28.8,12.5,0003.9,0015.20,0009.30,0008.24
2022-12-04 20:49:00,,0821.5,5.00,0.00,26.9,25.9,00.0,35.7,28.8,12.6,0003.3,0014.75,0009.26,0008.25
2022-12-04 20:50:00,,0821.5,4.98,0.00,26.9,25.9,00.0,35.7,28.9,12.6,0001.9,0014.85,0009.29,0008.26
2022-12-04 20:51:00,,0821.5,5.01,0.00,27.0,25.9,00.0,35.7,28.9,12.5,0001.2,0014.98,0009.29,0008.25
2022-12-04 20:52:00,,0821.4,5.00,0.00,27.0,25.9,00.0,35.7,28.9,12.5,0001.1,0015.07,0009.33,0008.27
2022-12-04 20:53:00,,0821.4,5.00,0.00,27.0,25.9,00.0,35.8,28.9,12.4,0001.0,0015.55,0009.39,0008.29
2022-12-04 20:54:00,,0821.4,5.00,0.00,27.0,25.9,00.0,35.8,28.9,12.4,0001.0,0015.86,0009.45,0008.32
2022-12-04 20:55:00,,0821.4,5.00,0.00,27.0,25.9,00.0,35.8,28.9,12.4,0001.4,0015.83,0009.44,0008.34
2022-12-04 20:56:00,,0821.4,5.00,0.00,27.0,26.0,00.0,35.8,28.9,12.4,0001.2,0015.55,0009.38,0008.34
2022-12-04 20:57:00,,0821.4,5.01,0.00,27.0,26.0,00.0,35.8,28.9,12.5,0001.6,0015.43,0009.33,0008.35
2022-12-04 20:58:00,,0821.4,5.00,0.00,27.1,26.0,00.0,35.8,29.0,12.4,0002.3,0015.38,0009.32,0008.34
2022-12-04 20:59:00,,0821.5,4.99,0.00,27.1,26.0,00.0,35.8,29.0,12.4,0003.0,0014.53,0009.31,0008.33
